{"data":{"norad_id":66122,"epoch":"2026-05-25T00:05:12.842304Z","epoch_age_seconds":75495,"freshness":"FRESH","line1":"1 66122U 25237J   26145.00362086  .00017900  00000+0  61487-3 0  9994","line2":"2 66122  53.1585  45.2116 0001112  69.6903 290.4217 15.30208849 34296","mean_motion":15.30208849,"eccentricity":0.0001112,"inclination_deg":53.1585,"raan_deg":45.2116,"arg_perigee_deg":69.6903,"mean_anomaly_deg":290.4217,"bstar":0.00061487,"rev_number":3429,"period_min":94.104801507392,"perigee_km":474.42655821563,"apogee_km":475.95073783976,"semimajor_km":6853.3256480277,"source":"CELESTRAK","updated_at":"2026-05-25T13:38:21.063114Z"}}